STARLINK-5690, 55480

Orbit data source: Space-Track

STARLINK-5690, 55480 is a payload satellite owned by SpaceX/Seattle (US) in LEO that was launched on Thu, 02 Feb 2023 UTC via an FALCON 9 launch vehicle from the Air Force Eastern Test Range (AFETR). Payload-class satellites include a variety of spacecraft equipped with specific instruments for various scientific and technological missions. These include communications satellites like Starlink; space stations such as the ISS; scientific satellites like the Hubble; Earth observation satellites from companies like Planet Labs, Umbra, and HawkEye 360; GPS; miniature CubeSats for education and research; and military/defense satellites.

Loading next visibility...
Identifier
55480, 2023-015AH
Orbit
LEO
Country
Flag of USUS
Related business
Manufacturer
SpaceX/Seattle
Mission
Operational Commercial Communications
Bus & Motor
STARLINK, Unknown motor
Mass
305 kg wet, ~290 kg dry
Launch date (UTC)
2023-02-02 (3 years ago)
Launch vehicle
FALCON 9
Launch site
Air Force Eastern Test Range (AFETR)
Object type
Payload
Rocket body
Debris
Shape & HBR
Box + 1 Pan, 10.1 m
Radar Cross Section
13.562 m², Large (>1 m²)

Expand to show TLE details & history
Last TLE update: 16 hours ago

TLE from 16 hours ago
0 STARLINK-5690
1 55480U 23015AH  26035.38530239  .00000837  00000-0  77020-4 0  9990
2 55480  43.0021 159.9036 0001248 268.0706  91.9993 15.02535378165596
Epoch: 2026-02-04T09:14Z
TLE epoch observation values (Epoch: 2026-02-04T09:14:50.126Z)
Latitude
-0.00005°
Longitude
-113.35795°
Altitude
558.89 km
Speed
7.584 km/s
True Right ascension
10h 39m 36s
True Declination
0° 00' 00"
Sunlit
Object was in full shadow at epoch
Visualization orbit readout
Latitude
Unknown
Longitude
Unknown
Altitude
Unknown
Speed
Unknown
Apparent Right ascension
Unknown
Apparent Declination
Unknown
Sunlit
N/A
Visualization observer readout
Local Sidereal Time
03:05:20
Azimuth
Unknown
Elevation
Unknown
Doppler factor
Unknown
Orbital elements
Apogee altitude
561.871 km
Perigee altitude
560.139 km
Semi-major axis
6,939.142 km
Eccentricity
0.00012
Inclination
43.0021°
RAAN
159.9036°
Arg. of periapsis
268.0706°
True anomaly
92.01359°
Mean anomaly
91.9993°
Eccentric anomaly
92.00645°
Mean motion
3.75478 °/min
Orbital period
95.88 mins
BSTAR
0.00007702
Loading maneuver chart data...
Computing Atmospheric mass density...
Loading historical data...
Loading historical data...
Loading historical data...
Loading historical data...
Loading historical data...
Loading historical data...
Loading historical data...

Documentation

Showing up to 5 results
|